[[{"header":{"parameterUnit":"m.s-1","parameterCategory":1,"la1":30.2991,"la2":30.254,"lo1":-89.0895,"lo2":-89.0444,"dy":0.0017,"dx":0.0017,"nx":28,"ny":28,"refTime":"2024-10-08T21:00:00:Z","depth":0,"parameterNumber":2,"parameterNumberName":"U-component_of_WINDS"},"data":[0,0,0,0,0,0,0,0,0,0,0,0,0,0,0,0,0,0,0,0,0,0,0,0,0,0,0,0,0,0,0,0,0,0,0,0,0,0,0,0,0,0,0,0,0,0,0,0,0,0,0,0,0,0,0,0,0,0,-0.8845,-0.8845,0,-0.8837,-0.8837,-0.8837,-0.88,-0.8799,-0.8799,-0.8798,-0.8792,-0.8792,-0.8793,0,0,0,0,0,0,0,0,0,0,0,0,0,-0.8829,-0.8829,-0.8845,-0.8845,-0.8845,-0.8837,-0.8837,-0.8837,-0.88,-0.8799,-0.8798,-0.8797,-0.8791,-0.8792,-0.8793,0,0,0,0,0,0,0,0,0,0,0,0,0,-0.883,-0.8829,-0.8845,-0.8825,-0.8824,-0.8837,-0.8837,-0.8837,-0.8801,-0.8799,-0.8798,-0.8797,-0.8791,-0.8792,-0.8793,-0.8825,0,0,-0.8796,-0.8796,0,0,0,0,0,0,0,0,-0.883,-0.8831,-0.8828,-0.8827,-0.8825,-0.8818,-0.8829,-0.8833,-0.8801,-0.8809,-0.8798,-0.8796,-0.8802,-0.8802,-0.8803,-0.8825,-0.8825,-0.8796,-0.8797,-0.8797,-0.8797,0,0,0,0,0,0,0,-0.883,-0.8831,-0.8842,-0.8828,-0.8826,-0.8817,-0.8816,-0.883,-0.8813,-0.8809,-0.8806,-0.8805,-0.88,-0.8802,-0.8803,-0.8825,-0.8796,-0.8797,-0.8798,-0.8798,-0.8873,-0.8874,0,0,0,0,0,0,-0.8832,-0.8831,-0.8842,-0.8842,-0.8824,-0.8819,-0.8817,-0.8822,-0.8813,-0.881,-0.8807,-0.8804,-0.8801,-0.8802,-0.8802,-0.884,-0.8797,-0.8798,-0.8799,-0.8871,-0.8873,-0.8874,0,0,0,0,0,0,-0.8832,-0.8834,-0.8842,-0.8835,-0.8836,-0.882,-0.8826,-0.8822,-0.8824,-0.8811,-0.8808,-0.8812,-0.88,-0.8801,-0.882,-0.8839,-0.8798,-0.8799,-0.887,-0.8872,-0.8874,-0.8916,0,0,0,0,0,0,-0.8832,-0.8834,-0.8846,-0.8836,-0.8836,-0.886,-0.8827,-0.8823,-0.8826,-0.8822,-0.8815,-0.8813,-0.8799,-0.8819,-0.8821,-0.884,-0.88,-0.8868,-0.8871,-0.8873,-0.8913,-0.8919,-0.8925,0,0,0,0,0,-0.8831,-0.8858,-0.8847,-0.8848,-0.8851,-0.8861,-0.8861,-0.8845,-0.8827,-0.884,-0.8831,-0.8813,-0.8836,-0.8821,-0.8823,-0.8843,-0.8867,-0.887,-0.8873,-0.891,-0.8918,-0.8924,0,0,0,0,0,0,-0.8872,-0.8857,-0.8844,-0.8868,-0.8866,-0.8855,-0.887,-0.8854,-0.8857,-0.8854,-0.8833,-0.8832,-0.8854,-0.885,-0.8833,-0.8874,-0.8848,-0.8852,-0.8876,-0.8883,-0.8889,-0.889,-0.8801,0,0,0,0,0,-0.8883,-0.8892,-0.8878,-0.8901,-0.8901,-0.8885,-0.8889,-0.8877,-0.8874,-0.8873,-0.8866,-0.8865,-0.8872,-0.8877,-0.8883,-0.8911,-0.891,-0.8926,-0.8932,-0.8937,-0.8941,-0.8956,-0.8964,-0.8885,-0.8885,-0.8885,0,0,-0.8907,-0.89,-0.8907,-0.8909,-0.8906,-0.8917,-0.8885,-0.8897,-0.8905,-0.8875,-0.8893,-0.8887,-0.8884,-0.8908,-0.8918,-0.8906,-0.8962,-0.8941,-0.8945,-0.8946,-0.896,-0.8968,-0.8974,-0.8887,-0.8887,-0.8886,0,0,-0.8957,-0.8952,-0.8971,-0.8968,-0.8964,-0.8953,-0.8958,-0.8949,-0.8944,-0.8961,-0.8939,-0.8947,-0.896,-0.8959,-0.896,-0.9008,-0.8992,-0.901,-0.9043,-0.9058,-0.9064,-0.9069,-0.9088,-0.9095,-0.9014,-0.9014,-0.9014,0,-0.8989,-0.9003,-0.8983,-0.8996,-0.8998,-0.897,-0.899,-0.8988,-0.8986,-0.8988,-0.8973,-0.8988,-0.8984,-0.9008,-0.902,-0.9021,-0.9026,-0.9012,-0.9064,-0.907,-0.9075,-0.9092,-0.9099,-0.9017,-0.9016,-0.9016,-0.9016,0,-0.9042,-0.9052,-0.9067,-0.9065,-0.9069,-0.9085,-0.9068,-0.9074,-0.906,-0.9051,-0.9069,-0.9063,-0.9067,-0.9071,-0.9059,-0.9093,-0.9086,-0.9068,-0.9043,-0.9085,-0.9101,-0.9107,-0.902,-0.9019,-0.9018,-0.9018,0,0,-0.9119,-0.9104,-0.9111,-0.911,-0.9102,-0.911,-0.9124,-0.9128,-0.9134,-0.9133,-0.9145,-0.9156,-0.9139,-0.9141,-0.9127,-0.914,-0.918,-0.9121,-0.9121,-0.9134,-0.9219,-0.9234,-0.9242,-0.9169,-0.917,-0.9171,-0.922,0,-0.9167,-0.9192,-0.9174,-0.9202,-0.9212,-0.9185,-0.9198,-0.9195,-0.9186,-0.9194,-0.9184,-0.9193,-0.9169,-0.917,-0.9182,-0.9173,-0.9198,-0.9169,-0.9182,-0.9182,-0.9185,-0.925,-0.9266,-0.9313,-0.9226,-0.9227,-0.9228,0,-0.9228,-0.9229,-0.9258,-0.9248,-0.9251,-0.9264,-0.9265,-0.9272,-0.9268,-0.9261,-0.9262,-0.9245,-0.9259,-0.9233,-0.9253,-0.9234,-0.9238,-0.9234,-0.9236,-0.9238,-0.9209,-0.9256,-0.9327,-0.9335,-0.9237,-0.9236,-0.9236,0,-0.9283,-0.9291,-0.931,-0.9309,-0.9298,-0.9308,-0.9303,-0.9298,-0.9301,-0.9302,-0.9304,-0.9308,-0.931,-0.9313,-0.9297,-0.9279,-0.932,-0.9292,-0.9316,-0.9316,-0.9327,-0.9327,-0.9402,-0.9327,-0.9326,-0.9326,-0.9326,0,-0.934,-0.936,-0.9334,-0.9346,-0.9367,-0.9346,-0.9367,-0.936,-0.9355,-0.9365,-0.9341,-0.9352,-0.933,-0.9338,-0.9325,-0.9345,-0.9345,-0.9341,-0.9338,-0.9344,-0.9345,-0.9348,-0.9345,-0.9328,-0.9328,-0.9327,-0.9327,0,-0.9406,-0.939,-0.9409,-0.9396,-0.9393,-0.9409,-0.9398,-0.9409,-0.9398,-0.9411,-0.9413,-0.9397,-0.9405,-0.9389,-0.9395,-0.9387,-0.9414,-0.9405,-0.9416,-0.9414,-0.9439,-0.9438,-0.952,-0.953,-0.9447,-0.9448,-0.9448,0,-0.9445,-0.9459,-0.9448,-0.9452,-0.9449,-0.9457,-0.946,-0.9439,-0.9443,-0.9439,-0.9451,-0.9456,-0.946,-0.9474,-0.9464,-0.9468,-0.946,-0.9489,-0.9461,-0.9467,-0.9462,-0.9463,-0.9464,-0.9495,-0.9496,-0.9497,-0.9498,0,-0.9516,-0.9507,-0.9512,-0.9514,-0.9518,-0.9518,-0.9517,-0.9523,-0.9501,-0.9506,-0.9514,-0.9517,-0.9523,-0.9529,-0.9531,-0.9527,-0.951,-0.9506,-0.9512,-0.952,-0.9526,-0.9524,-0.9434,-0.9505,-0.9504,-0.9504,-0.9503,-0.9503,-0.9571,-0.9582,-0.9576,-0.9582,-0.9578,-0.9578,-0.9587,-0.9577,-0.9583,-0.9586,-0.9573,-0.9584,-0.9579,-0.9579,-0.9577,-0.9585,-0.9573,-0.9581,-0.9584,-0.9587,-0.9591,-0.9523,-0.9585,-0.9585,-0.9585,-0.9585,-0.9585,0,-0.9642,-0.9636,-0.9641,-0.964,-0.9645,-0.9626,-0.9624,-0.963,-0.9639,-0.9636,-0.964,-0.9648,-0.9654,-0.9643,-0.9648,-0.9657,-0.9649,-0.9659,-0.9659,-0.9658,-0.9602,-0.9597,-0.9665,-0.9665,-0.9665,-0.9665,-0.9665,-0.9665,-0.968,-0.9698,-0.9688,-0.9704,-0.9698,-0.9708,-0.9709,-0.9708,-0.9705,-0.9716,-0.9721,-0.9713,-0.9707,-0.971,-0.9715,-0.9712,-0.9715,-0.9728,-0.9723,-0.967,-0.9662,-0.9655,-0.965,-0.9729,-0.9729,-0.9779,-0.9779,-0.978]},{"header":{"parameterUnit":"m.s-1","parameterCategory":1,"la1":30.2991,"la2":30.254,"lo1":-89.0895,"lo2":-89.0444,"dy":0.0017,"dx":0.0017,"nx":28,"ny":28,"refTime":"2024-10-08T21:00:00:Z","depth":0,"parameterNumber":3,"parameterNumberName":"V-component_of_WINDS"},"data":[0,0,0,0,0,0,0,0,0,0,0,0,0,0,0,0,0,0,0,0,0,0,0,0,0,0,0,0,0,0,0,0,0,0,0,0,0,0,0,0,0,0,0,0,0,0,0,0,0,0,0,0,0,0,0,0,0,0,-4.9639,-4.964,0,-4.9685,-4.9686,-4.9686,-4.9634,-4.9633,-4.9631,-4.9629,-4.9671,-4.9674,-4.9677,0,0,0,0,0,0,0,0,0,0,0,0,0,-4.9502,-4.9505,-4.9639,-4.964,-4.964,-4.9685,-4.9686,-4.9686,-4.9635,-4.9632,-4.963,-4.9628,-4.967,-4.9674,-4.9677,0,0,0,0,0,0,0,0,0,0,0,0,0,-4.9556,-4.9506,-4.9639,-4.962,-4.9619,-4.9685,-4.9686,-4.9687,-4.9635,-4.9632,-4.9629,-4.9627,-4.9669,-4.9673,-4.9678,-4.9764,0,0,-4.9691,-4.9693,0,0,0,0,0,0,0,0,-4.9553,-4.9561,-4.9622,-4.9622,-4.962,-4.9651,-4.9653,-4.9712,-4.9636,-4.9629,-4.9629,-4.9625,-4.9667,-4.9671,-4.9686,-4.9766,-4.9767,-4.9692,-4.9694,-4.9696,-4.9698,0,0,0,0,0,0,0,-4.955,-4.9559,-4.9657,-4.9623,-4.9622,-4.9608,-4.9612,-4.9664,-4.9663,-4.9629,-4.9626,-4.9632,-4.9665,-4.9682,-4.9687,-4.9768,-4.9692,-4.9695,-4.9698,-4.97,-4.9921,-4.9924,0,0,0,0,0,0,-4.9549,-4.9556,-4.9656,-4.9659,-4.9579,-4.9613,-4.9618,-4.9644,-4.9663,-4.9663,-4.9635,-4.963,-4.9676,-4.9682,-4.9688,-4.9791,-4.9696,-4.97,-4.9703,-4.9918,-4.9922,-4.9926,0,0,0,0,0,0,-4.9546,-4.9558,-4.9654,-4.9607,-4.9618,-4.9618,-4.9648,-4.9647,-4.9663,-4.9667,-4.9666,-4.9652,-4.9674,-4.9682,-4.9746,-4.9791,-4.9702,-4.9706,-4.9914,-4.9919,-4.9924,-4.9996,0,0,0,0,0,0,-4.9542,-4.9557,-4.9591,-4.9608,-4.9621,-4.9712,-4.9651,-4.965,-4.9671,-4.9665,-4.9683,-4.9683,-4.9672,-4.9739,-4.975,-4.9796,-4.971,-4.991,-4.9917,-4.9922,-4.999,-5.0003,-5.0014,0,0,0,0,0,-4.9538,-4.9608,-4.9593,-4.9605,-4.9663,-4.9715,-4.9722,-4.971,-4.9675,-4.9708,-4.9711,-4.9682,-4.9785,-4.9746,-4.9758,-4.9806,-4.9907,-4.9915,-4.9922,-4.9984,-5.0,-5.0014,0,0,0,0,0,0,-4.9594,-4.961,-4.9593,-4.9672,-4.9693,-4.9706,-4.9748,-4.9727,-4.9757,-4.975,-4.9732,-4.9736,-4.9805,-4.9811,-4.9768,-4.989,-4.984,-4.985,-4.9884,-4.9899,-4.9911,-4.9908,-4.9714,0,0,0,0,0,-4.9616,-4.9659,-4.967,-4.9738,-4.9749,-4.9747,-4.9769,-4.9758,-4.9779,-4.9787,-4.9794,-4.9814,-4.985,-4.9875,-4.9909,-4.999,-4.9994,-5.0029,-5.0041,-5.0051,-5.006,-5.0105,-5.0121,-4.9949,-4.9949,-4.9949,0,0,-4.9661,-4.9675,-4.9703,-4.975,-4.9765,-4.9809,-4.9755,-4.9803,-4.9835,-4.9793,-4.9855,-4.9861,-4.9882,-4.9956,-4.9989,-4.9964,-5.0108,-5.006,-5.0068,-5.0072,-5.0114,-5.013,-5.0145,-4.9954,-4.9953,-4.9953,0,0,-4.9766,-4.9781,-4.984,-4.9857,-4.9881,-4.988,-4.9894,-4.9911,-4.9914,-4.9976,-4.9947,-4.9984,-5.0047,-5.0064,-5.008,-5.0193,-5.0168,-5.0205,-5.0269,-5.0312,-5.0326,-5.0338,-5.0379,-5.0394,-5.0213,-5.0214,-5.0214,0,-4.9819,-4.9885,-4.9873,-4.9924,-4.9946,-4.9912,-4.9972,-4.9988,-5.0021,-5.0036,-5.0008,-5.0088,-5.0099,-5.0177,-5.0205,-5.0219,-5.0235,-5.0203,-5.0325,-5.0337,-5.0348,-5.0387,-5.0403,-5.0218,-5.0217,-5.0217,-5.0217,0,-4.9949,-4.9996,-5.004,-5.0077,-5.0103,-5.0158,-5.0152,-5.018,-5.0167,-5.0168,-5.0232,-5.0245,-5.0281,-5.0299,-5.0285,-5.0375,-5.0359,-5.0328,-5.0278,-5.0369,-5.0405,-5.042,-5.0224,-5.0223,-5.0221,-5.022,0,0,-5.0091,-5.0121,-5.0137,-5.0154,-5.0179,-5.0214,-5.0267,-5.0305,-5.0329,-5.0354,-5.0398,-5.0453,-5.0426,-5.0445,-5.0433,-5.0471,-5.0561,-5.0436,-5.0436,-5.046,-5.0662,-5.0685,-5.0703,-5.0545,-5.0547,-5.055,-5.066,0,-5.0197,-5.0292,-5.0283,-5.0372,-5.0416,-5.0385,-5.0431,-5.0451,-5.0454,-5.049,-5.0491,-5.0531,-5.0491,-5.0503,-5.054,-5.0543,-5.0602,-5.0534,-5.0585,-5.0587,-5.0582,-5.0722,-5.0747,-5.0851,-5.0674,-5.0677,-5.0679,0,-5.0334,-5.0366,-5.0461,-5.0481,-5.0499,-5.0541,-5.0575,-5.061,-5.0632,-5.0631,-5.0653,-5.0635,-5.0688,-5.0636,-5.0709,-5.0663,-5.0683,-5.0688,-5.0692,-5.0696,-5.0639,-5.0731,-5.0883,-5.0899,-5.0701,-5.0699,-5.0697,0,-5.0429,-5.0495,-5.0561,-5.0576,-5.0601,-5.0631,-5.0643,-5.0662,-5.0686,-5.0715,-5.073,-5.0765,-5.0784,-5.0811,-5.0802,-5.0765,-5.0877,-5.0824,-5.0877,-5.0878,-5.0902,-5.0901,-5.1061,-5.0914,-5.0914,-5.0914,-5.0913,0,-5.0549,-5.0609,-5.0605,-5.0645,-5.0711,-5.0699,-5.0764,-5.0771,-5.0788,-5.0829,-5.0803,-5.0842,-5.0828,-5.0865,-5.0858,-5.092,-5.0928,-5.0929,-5.0926,-5.0932,-5.0932,-5.0945,-5.0938,-5.0918,-5.0917,-5.0916,-5.0915,0,-5.0667,-5.0666,-5.0736,-5.0755,-5.0761,-5.0809,-5.0824,-5.0861,-5.0862,-5.0914,-5.0925,-5.0926,-5.0969,-5.0963,-5.101,-5.1006,-5.1083,-5.1071,-5.1076,-5.1074,-5.1128,-5.1123,-5.1302,-5.1326,-5.1163,-5.1165,-5.1166,0,-5.0744,-5.079,-5.0814,-5.0841,-5.0855,-5.0897,-5.0922,-5.0912,-5.0939,-5.0968,-5.1002,-5.1043,-5.1075,-5.1145,-5.1149,-5.1185,-5.1174,-5.1235,-5.1179,-5.1184,-5.1176,-5.1174,-5.1179,-5.1246,-5.1247,-5.1249,-5.125,0,-5.0882,-5.088,-5.0918,-5.0956,-5.0987,-5.1016,-5.1042,-5.1065,-5.1057,-5.1089,-5.1133,-5.1159,-5.1208,-5.1249,-5.1283,-5.1293,-5.1271,-5.1268,-5.1282,-5.1288,-5.129,-5.1291,-5.1107,-5.1264,-5.1262,-5.1261,-5.126,-5.126,-5.0982,-5.1022,-5.1046,-5.1089,-5.1108,-5.1134,-5.1171,-5.1177,-5.1215,-5.1256,-5.1247,-5.1298,-5.1318,-5.1362,-5.1376,-5.1415,-5.1393,-5.1413,-5.1419,-5.1424,-5.1431,-5.1283,-5.1421,-5.142,-5.142,-5.142,-5.1419,0,-5.1119,-5.1134,-5.1174,-5.1213,-5.1247,-5.1225,-5.1253,-5.1283,-5.1328,-5.135,-5.1384,-5.1435,-5.1475,-5.1483,-5.1521,-5.155,-5.1541,-5.1561,-5.1559,-5.1562,-5.1448,-5.1433,-5.1568,-5.1568,-5.1568,-5.1568,-5.1568,-5.1568,-5.1195,-5.1261,-5.1262,-5.1338,-5.1351,-5.1402,-5.1421,-5.1444,-5.1462,-5.1522,-5.1556,-5.1561,-5.1578,-5.1617,-5.1652,-5.1653,-5.1669,-5.1693,-5.169,-5.1584,-5.1569,-5.1555,-5.1541,-5.1696,-5.1696,-5.18,-5.1801,-5.1802]}]]